Flag for Brazil Weather past 2 weeks in Santos, São Paulo, Brazil

Now
81 °F

Passing clouds.


Feels Like: 81 °F
Forecast: 70 / 78 °F
Wind: 12 mph from Southeast

Location: Sao Paulo Airport

Current Time: Oct 23, 2014 at 3:36:02 PM

Latest Report: Oct 23, 2014 at 3:00 PM


Visibility: N/A

Pressure: 30.12 "Hg

Humidity: 45%

Dew point: 57 °F

Location of SantosLocation

Historic Weather in Santos — Graph

°F

Santos temperature yesterday

Maximum temperature yesterday: 68 °F (at 1:00 PM)
Minimum temperature yesterday: 59 °F (at 4:00 AM)
Average temperature yesterday: 62 °F

Past Weeks' High & Low Weather Summary

 TemperatureHumidityPressure
High97 °F (Oct 13, 2:00 PM)88% (Oct 17, 2:00 AM)30.27 "Hg (Oct 17, 2:00 AM)
Low59 °F (Oct 22, 4:00 AM)13% (Oct 12, 3:00 PM)29.89 "Hg (Oct 19, 4:00 PM)
Average73 °F57%30.10 "Hg
* Reported Oct 8 1:00 PM — Oct 23 2:00 PM, Santos, Weather by CustomWeather, © 2014

Note: Actual official high and low records may vary slightly from our data, if they occured in-between our weather recording intervals... More about our weather records

Advertising

Santos weather history for previous 24 hours

 ConditionsComfort  
Time TempWeatherWind HumidityBarometerVisibility
2:00 PM
Oct 23
81 °FSunny.5 mph42%30.15 "Hg10 mi
1:00 PM77 °FSunny.5 mph47%30.18 "Hg10 mi
12:00 PM73 °FSunny.5 mph53%30.21 "Hg10 mi
11:00 AM70 °FPassing clouds.7 mph57%30.24 "HgN/A
10:00 AM66 °FScattered clouds.9 mph64%30.24 "HgN/A
9:00 AM64 °FOvercast.7 mph68%30.21 "HgN/A
8:00 AM63 °FOvercast.7 mph73%30.21 "HgN/A
7:00 AM61 °FOvercast.9 mph77%30.18 "HgN/A
6:00 AM61 °FOvercast.7 mph77%30.18 "HgN/A
5:00 AM61 °FOvercast.6 mph77%30.18 "HgN/A
4:00 AM61 °FOvercast.7 mph77%30.18 "HgN/A
3:00 AM61 °FOvercast.8 mph77%30.18 "HgN/A
2:00 AM61 °FOvercast.8 mph77%30.21 "HgN/A
1:00 AM61 °FOvercast.10 mph72%30.21 "HgN/A
12:00 AM61 °FOvercast.13 mph72%30.24 "HgN/A
11:00 PM
Oct 22
61 °FOvercast.12 mph77%30.24 "HgN/A
10:00 PM61 °FLow clouds.9 mph83%30.21 "HgN/A
9:00 PM61 °FLow clouds.10 mph83%30.24 "HgN/A
8:00 PM61 °FLow clouds.15 mph77%30.21 "HgN/A
7:00 PM61 °FLow clouds.17 mph83%30.21 "HgN/A
6:00 PM61 °FLow clouds.14 mph83%30.21 "HgN/A
5:00 PM64 °FOvercast.15 mph73%30.18 "HgN/A
4:00 PM66 °FMostly cloudy.18 mph68%30.18 "HgN/A
3:00 PM66 °FMore clouds than sun.16 mph68%30.21 "HgN/A
Weather by CustomWeather, © 2014

See weather overviewHow to use our weather pages